User: anonymous   Login
Location: Unspecified
(0.0000°N, 0.0000°E)
Time: 20:56:05
(UTC+00:00)
Language:

USA 215 - Orbit

View from above orbital plane
View from above orbital plane
View from above satellite
View from above satellite

Ground track
Ground track

The orbit data is extracted from the following two-line orbital elements,

1 37162U 10046A   18111.10053910 0.00000000  00000-0  00000-0 0    04
2 37162 123.0003  51.0216 0004000 144.0862 215.9137 13.41423163    00
Epoch (UTC): 21 April 2018 02:24:46
Eccentricity: 0.0004000
inclination: 123.0003°
perigee height: 1101 km
apogee height: 1107 km
right ascension of ascending node: 51.0216°
argument of perigee: 144.0862°
revolutions per day: 13.41423163
mean anomaly at epoch: 215.9137°
orbit number at epoch: 0

The dashed part of the orbit path shows where the satellite is in the earth's shadow,  

DLR